Simultaneous Nadir Overpasses (SNOs) Predictions

Prediction of SNOs between LANDSAT-8 and METOP-B Satellite Orbit:

Table of predicted SNOs for the next 14.0 days since TLE Epoch: 3/3/2017
Index Date (LANDSAT-8) Time (LANDSAT-8) Lat,Lon (LANDSAT-8) SZA (LANDSAT-8 ) Date (METOP-B) Time (METOP-B) Lat,Lon (METOP-B) SZA (METOP-B ) Distance(km) Time Diff (sec)
1 03/04/2017 06:48:02 -81.08, -63.16 90.95 03/04/2017 06:47:22 -81.08, -63.30 90.98 2.35 40
2 03/04/2017 07:37:27 81.11, 104.94 89.11 03/04/2017 07:38:01 81.11, 104.81 89.11 2.39 34
3 03/07/2017 02:22:14 -81.10, 3.57 91.98 03/07/2017 02:21:42 -81.10, 3.66 91.98 1.53 32
4 03/07/2017 03:11:39 81.13, 171.65 88.08 03/07/2017 03:12:21 81.13, 171.74 88.10 1.55 42
5 03/09/2017 21:56:28 -81.09, 69.90 93.08 03/09/2017 21:56:05 -81.09, 69.86 93.09 0.76 23
6
